DateTimeUTC,F1_A11,F1_S11,BsB_S11,BsG_S11,BsR_S11,BbsB_S11,BbsG_S11,BbsR_S11,BaB_A11,BaG_A11,BaR_A11,Tu_S11,T_S11,Uu_S11,U_S11,P_S11,T1_A11
2021-08-13T19:00:00Z,00000200,20000000,,,,,,,-000.14,0000.07,0000.08,18.4,24.9,12.4,08.3,0673.4,30.9
2021-08-13T19:01:00Z,00000200,20000000,,,,,,,0000.02,-000.03,-000.33,18.4,24.9,12.4,08.3,0673.4,30.9
2021-08-13T19:02:00Z,00000200,20000000,,,,,,,-000.25,-000.52,-000.10,18.4,24.9,12.2,08.2,0673.4,30.9
2021-08-13T19:03:00Z,00000200,60000000,,,,,,,0014.30,0013.38,0010.97,18.4,24.9,12.1,08.1,0673.4,30.9
2021-08-13T19:04:00Z,00000200,40000000,0076.63,0066.71,0049.09,0008.83,0007.09,0005.85,0018.93,0017.94,0014.34,18.5,24.7,12.1,08.3,0674.1,30.9
2021-08-13T19:05:00Z,00000200,00000000,0076.17,0067.13,0049.07,0009.21,0007.00,0005.75,0018.96,0017.64,0014.48,18.5,24.7,12.1,08.3,0674.3,30.9
2021-08-13T19:06:00Z,00000200,00000000,0077.37,0067.82,0049.90,0009.71,0007.24,0005.92,0019.18,0018.01,0014.48,18.5,24.7,12.3,08.4,0674.4,30.9
2021-08-13T19:07:00Z,00000200,00000000,0078.26,0068.30,0050.52,0008.82,0007.20,0005.45,0019.03,0017.52,0014.34,18.5,24.7,12.3,08.5,0674.3,30.9
2021-08-13T19:08:00Z,00000200,00000000,0079.20,0066.93,0049.69,0009.56,0007.43,0005.54,0018.99,0017.84,0014.67,18.6,24.7,12.3,08.4,0674.3,30.9
2021-08-13T19:09:00Z,00000200,00000000,0079.68,0069.18,0050.46,0009.22,0007.20,0006.05,0019.55,0018.51,0015.12,18.5,24.7,12.3,08.5,0674.4,30.9
2021-08-13T19:10:00Z,00000200,00000000,0079.00,0068.71,0051.50,0009.66,0007.34,0005.64,0018.70,0017.77,0013.94,18.6,24.6,12.3,08.5,0674.4,30.9
2021-08-13T19:11:00Z,00000200,00000000,0079.47,0067.68,0051.06,0008.81,0007.12,0005.50,0019.88,0017.69,0015.19,18.5,24.6,12.3,08.5,0674.4,30.9
2021-08-13T19:12:00Z,00000200,00000000,0079.20,0068.20,0051.08,0009.05,0007.18,0005.68,0019.17,0018.41,0014.60,18.6,24.7,12.3,08.5,0674.4,30.9
2021-08-13T19:13:00Z,00000200,00000000,0077.64,0069.31,0051.03,0009.36,0007.26,0005.96,0019.05,0017.95,0014.44,18.6,24.7,12.3,08.5,0674.4,30.9
2021-08-13T19:14:00Z,00000200,00000000,0077.85,0068.56,0050.10,0008.45,0007.17,0005.59,0018.81,0017.32,0014.36,18.7,24.7,12.3,08.5,0674.4,30.9
2021-08-13T19:15:00Z,00000200,00000000,0076.73,0068.16,0050.23,0008.65,0007.39,0005.48,0018.99,0018.01,0014.62,18.7,24.7,12.2,08.5,0674.4,30.9
2021-08-13T19:16:00Z,00000200,00000000,0079.24,0068.86,0051.34,0009.12,0007.06,0005.73,0019.36,0017.69,0014.89,18.7,24.7,12.2,08.5,0674.4,30.9
2021-08-13T19:17:00Z,00000200,00000000,0077.51,0069.39,0051.57,0008.94,0007.25,0005.70,0018.91,0018.19,0014.39,18.7,24.7,12.1,08.4,0674.4,30.9
2021-08-13T19:18:00Z,00000200,00000000,0078.51,0068.14,0051.11,0009.53,0007.57,0005.92,0019.56,0018.09,0015.19,18.7,24.7,12.3,08.5,0674.5,30.9
2021-08-13T19:19:00Z,00000200,00000000,0077.62,0069.39,0049.98,0009.21,0007.45,0005.63,0019.57,0018.34,0014.40,18.7,24.7,12.2,08.4,0674.4,30.9
2021-08-13T19:20:00Z,00000200,00000000,0078.15,0070.05,0051.43,0008.38,0007.54,0006.06,0018.96,0017.99,0014.88,18.7,24.7,12.3,08.5,0674.4,30.9
2021-08-13T19:21:00Z,00000200,00000000,0079.88,0069.47,0051.31,0009.38,0007.58,0005.77,0019.08,0017.84,0014.35,18.7,24.7,12.2,08.4,0674.4,30.9
2021-08-13T19:22:00Z,00000200,00000000,0081.27,0069.64,0050.83,0009.30,0007.77,0005.54,0019.03,0017.64,0014.75,18.7,24.7,12.2,08.5,0674.3,30.9
2021-08-13T19:23:00Z,00000200,00000000,0079.94,0069.70,0050.76,0009.54,0007.67,0006.10,0019.26,0017.48,0014.18,18.7,24.7,12.2,08.4,0674.4,30.9
2021-08-13T19:24:00Z,00000200,00000000,0080.04,0069.64,0051.43,0009.27,0007.35,0005.98,0019.18,0018.11,0014.52,18.7,24.7,12.2,08.4,0674.3,30.9
2021-08-13T19:25:00Z,00000200,00000000,0081.46,0071.13,0051.76,0009.71,0007.56,0006.08,0019.33,0018.20,0015.04,18.7,24.7,12.2,08.4,0674.4,30.9
2021-08-13T19:26:00Z,00000200,00000000,0079.91,0069.63,0051.94,0009.02,0007.51,0006.04,0019.52,0018.13,0014.60,18.7,24.7,12.3,08.5,0674.5,30.9
2021-08-13T19:27:00Z,00000200,00000000,0080.38,0069.63,0052.08,0009.54,0007.40,0006.15,0019.39,0018.23,0015.11,18.7,24.7,12.2,08.5,0674.5,30.9
2021-08-13T19:28:00Z,00000200,00000000,0079.30,0069.47,0051.13,0009.37,0007.24,0005.86,0019.19,0018.17,0014.32,18.7,24.7,12.2,08.4,0674.4,30.9
2021-08-13T19:29:00Z,00000200,00000000,0080.45,0069.31,0051.62,0009.28,0007.57,0006.06,0019.58,0018.29,0015.16,18.6,24.7,12.2,08.4,0674.5,30.9
2021-08-13T19:30:00Z,00000200,00000000,0079.92,0069.82,0051.79,0010.00,0007.49,0006.02,0019.33,0017.86,0014.43,18.6,24.7,12.2,08.4,0674.4,30.9
2021-08-13T19:31:00Z,00000200,00000000,0080.60,0068.01,0052.05,0009.17,0007.16,0005.97,0018.62,0017.81,0015.03,18.6,24.7,12.3,08.5,0674.4,30.8
2021-08-13T19:32:00Z,00000200,00000000,0079.44,0068.34,0050.71,0009.08,0007.27,0005.63,0019.15,0017.66,0014.38,18.6,24.7,12.3,08.5,0674.3,30.9
2021-08-13T19:33:00Z,00000200,00000000,0078.33,0068.25,0050.98,0008.84,0007.63,0005.71,0019.53,0017.97,0014.76,18.6,24.7,12.2,08.4,0674.3,30.9
2021-08-13T19:34:00Z,00000200,00000000,0077.71,0068.18,0050.56,0008.69,0007.03,0005.35,0018.56,0017.88,0014.28,18.6,24.7,12.2,08.4,0674.4,30.9
2021-08-13T19:35:00Z,00000200,00000000,0079.33,0068.16,0050.82,0009.79,0007.39,0005.55,0019.03,0017.42,0014.16,18.6,24.7,12.3,08.5,0674.3,30.9
2021-08-13T19:36:00Z,00000200,00000000,0080.35,0069.29,0050.15,0009.22,0007.45,0006.10,0019.15,0017.96,0014.75,18.6,24.6,12.2,08.4,0674.5,30.9
2021-08-13T19:37:00Z,00000200,00000000,0079.24,0069.68,0051.33,0008.94,0007.38,0006.16,0019.04,0017.97,0014.43,18.6,24.6,12.3,08.5,0674.5,30.9
2021-08-13T19:38:00Z,00000200,00000000,0079.73,0068.48,0050.43,0009.16,0007.40,0005.57,0019.06,0017.65,0014.93,18.6,24.6,12.2,08.4,0674.5,30.9
2021-08-13T19:39:00Z,00000200,00000000,0079.61,0068.70,0050.72,0009.61,0007.56,0005.44,0018.80,0017.54,0014.41,18.6,24.6,12.3,08.5,0674.5,30.9
2021-08-13T19:40:00Z,00000200,00000000,0079.49,0068.87,0050.66,0008.91,0007.23,0005.53,0018.85,0017.94,0014.17,18.6,24.7,12.3,08.5,0674.5,30.9
2021-08-13T19:41:00Z,00000200,00000000,0079.57,0068.72,0050.67,0009.63,0007.58,0005.75,0018.85,0017.40,0014.44,18.6,24.6,12.3,08.5,0674.5,30.8
2021-08-13T19:42:00Z,00000200,00000000,0078.18,0068.14,0050.51,0009.92,0007.11,0005.93,0019.10,0017.78,0014.42,18.6,24.6,12.2,08.4,0674.5,30.9
2021-08-13T19:43:00Z,00000200,00000000,0077.92,0067.53,0050.42,0008.75,0007.19,0005.48,0018.38,0017.30,0014.03,18.6,24.7,12.2,08.4,0674.4,30.9
2021-08-13T19:44:00Z,00000200,00000000,0077.24,0068.27,0050.72,0009.65,0007.31,0005.74,0018.88,0017.77,0014.49,18.7,24.7,12.2,08.4,0674.5,30.9
2021-08-13T19:45:00Z,00000200,00000000,0078.17,0067.34,0050.18,0009.27,0006.92,0005.69,0018.80,0017.43,0014.59,18.7,24.7,12.1,08.4,0674.5,30.9
2021-08-13T19:46:00Z,00000200,00000000,0077.58,0067.83,0050.52,0008.75,0007.15,0005.75,0018.57,0017.64,0013.93,18.7,24.7,12.2,08.4,0674.5,30.9
2021-08-13T19:47:00Z,00000200,00000000,0075.92,0067.04,0050.51,0009.32,0007.39,0005.87,0018.34,0016.99,0014.09,18.7,24.7,12.1,08.4,0674.5,30.9
2021-08-13T19:48:00Z,00000200,00000000,0076.05,0067.08,0048.91,0008.35,0006.95,0005.40,0018.49,0017.47,0013.93,18.7,24.7,12.1,08.4,0674.5,30.9
2021-08-13T19:49:00Z,00000200,00000000,0075.89,0066.85,0048.96,0008.84,0007.15,0005.48,0018.04,0016.85,0013.82,18.6,24.7,12.2,08.4,0674.5,30.9
2021-08-13T19:50:00Z,00000200,00000000,0076.17,0066.61,0049.01,0008.93,0007.10,0005.71,0018.35,0016.92,0014.00,18.6,24.7,12.2,08.4,0674.5,30.9
2021-08-13T19:51:00Z,00000200,00000000,0078.35,0067.06,0050.11,0009.76,0007.13,0005.60,0017.80,0016.66,0013.99,18.6,24.7,12.2,08.4,0674.6,30.9
2021-08-13T19:52:00Z,00000200,00000000,0075.31,0066.17,0048.73,0008.82,0006.86,0005.30,0018.12,0017.01,0013.43,18.6,24.7,12.2,08.5,0674.6,30.9
2021-08-13T19:53:00Z,00000200,00000000,0075.63,0065.93,0048.85,0008.79,0006.89,0005.49,0018.07,0016.78,0013.95,18.6,24.6,12.2,08.5,0674.6,30.9
2021-08-13T19:54:00Z,00000200,00000000,0075.87,0065.56,0049.10,0008.85,0006.81,0005.54,0017.67,0016.78,0013.69,18.6,24.6,12.3,08.5,0674.7,30.9
2021-08-13T19:55:00Z,00000200,00000000,0075.34,0064.91,0048.43,0008.52,0006.89,0005.61,0018.22,0016.95,0013.74,18.6,24.6,12.3,08.5,0674.6,30.9
2021-08-13T19:56:00Z,00000200,00000000,0074.39,0065.52,0048.35,0007.70,0006.60,0005.60,0018.27,0017.00,0013.70,18.6,24.6,12.2,08.4,0674.7,30.9
2021-08-13T19:57:00Z,00000200,40000000,,,,,,,0005.22,0005.03,0004.41,18.7,24.6,12.8,08.9,0674.7,30.9
2021-08-13T19:58:00Z,00000200,60000000,,,,,,,-000.13,-000.28,-000.03,18.5,24.8,12.3,08.3,0673.6,30.9
2021-08-13T19:59:00Z,00000200,20000000,,,,,,,-000.33,-000.19,-000.38,18.5,24.9,12.3,08.3,0673.6,30.9
